Location: Bergnershof
(48.9468°N, 10.9431°E)
Time: 16:15:50
(UTC+00:00)

Cosmos 2333 Rocket - Pass Details

Date: 25 June 2021
Orbit: 841 x 861 km, 70.8° (Epoch: 28 July)

Event Time Altitude Azimuth Distance (km) Brightness Sun altitude
Rises 22:47:38 0° 282° (WNW) 3,428 5.6 -17.4°
Reaches altitude 10° 22:52:03 10° 314° (NW) 2,490 5.4 -17.4°
Maximum altitude 22:54:02 12° 335° (NNW) 2,365 5.6 -17.5°
Drops below altitude 10° 22:56:02 10° 355° (N) 2,488 6.0 -17.5°
Sets 23:00:27 0° 27° (NNE) 3,421 6.4 -17.6°
